owner,sensor,date,latitude,longitude,vertical_datum,mass_concentration_of_oxygen_in_sea_water,qcFlag 
SCCF RECON,ioos:station:SCCF:11:1,2011-08-01T00:00:00Z,26.4679,-82.0631,1.442,5.72,1111122 
SCCF RECON,ioos:station:SCCF:11:1,2011-08-01T01:00:00Z,26.4679,-82.0631,1.36,5.35,1111122 
SCCF RECON,ioos:station:SCCF:11:1,2011-08-01T02:00:00Z,26.4679,-82.0631,1.37,6.57,1111122 
SCCF RECON,ioos:station:SCCF:11:1,2011-08-01T03:00:00Z,26.4679,-82.0631,1.54,5.29,1111122 
SCCF RECON,ioos:station:SCCF:11:1,2011-08-01T04:00:00Z,26.4679,-82.0631,1.739,5.44,1111122 
SCCF RECON,ioos:station:SCCF:11:1,2011-08-01T05:00:00Z,26.4679,-82.0631,1.88,5.13,1111122 
SCCF RECON,ioos:station:SCCF:11:1,2011-08-01T06:00:00Z,26.4679,-82.0631,1.98,5.36,1111122 
SCCF RECON,ioos:station:SCCF:11:1,2011-08-01T07:00:00Z,26.4679,-82.0631,2.063,5.18,1111122 
SCCF RECON,ioos:station:SCCF:11:1,2011-08-01T08:00:00Z,26.4679,-82.0631,2.05,5.18,1111122 
SCCF RECON,ioos:station:SCCF:11:1,2011-08-01T09:00:00Z,26.4679,-82.0631,1.94,4.67,1111122 
SCCF RECON,ioos:station:SCCF:11:1,2011-08-01T10:00:00Z,26.4679,-82.0631,1.797,4.59,1111122 
SCCF RECON,ioos:station:SCCF:11:1,2011-08-01T11:00:00Z,26.4679,-82.0631,1.71,4.27,1111122 
SCCF RECON,ioos:station:SCCF:11:1,2011-08-01T12:00:00Z,26.4679,-82.0631,1.64,4.33,1111122 
SCCF RECON,ioos:station:SCCF:11:1,2011-08-01T13:00:00Z,26.4679,-82.0631,1.61,4.27,1111122 
SCCF RECON,ioos:station:SCCF:11:1,2011-08-01T14:00:00Z,26.4679,-82.0631,1.7,4.2,1111122 
SCCF RECON,ioos:station:SCCF:11:1,2011-08-01T15:00:00Z,26.4679,-82.0631,1.88,4.73,1111122 
SCCF RECON,ioos:station:SCCF:11:1,2011-08-01T16:00:00Z,26.4679,-82.0631,2.031,5.15,1111122 
SCCF RECON,ioos:station:SCCF:11:1,2011-08-01T17:00:00Z,26.4679,-82.0631,2.145,5.08,1111122 
SCCF RECON,ioos:station:SCCF:11:1,2011-08-01T18:00:00Z,26.4679,-82.0631,2.22,5.23,1111122 
SCCF RECON,ioos:station:SCCF:11:1,2011-08-01T19:00:00Z,26.4679,-82.0631,2.22,5.37,1111122 
SCCF RECON,ioos:station:SCCF:11:1,2011-08-01T20:00:00Z,26.4679,-82.0631,2.134,5.82,1111122 
SCCF RECON,ioos:station:SCCF:11:1,2011-08-01T21:00:00Z,26.4679,-82.0631,1.99,6.05,1111122 
SCCF RECON,ioos:station:SCCF:11:1,2011-08-01T22:00:00Z,26.4679,-82.0631,1.821,5.8,1111122 
SCCF RECON,ioos:station:SCCF:11:1,2011-08-01T23:00:00Z,26.4679,-82.0631,1.67,5.61,1111122 
SCCF RECON,ioos:station:SCCF:11:1,2011-08-02T00:00:00Z,26.4679,-82.0631,1.517,5.38,1111122 
SCCF RECON,ioos:station:SCCF:11:1,2011-08-02T01:00:00Z,26.4679,-82.0631,1.4,5.15,1111122 
SCCF RECON,ioos:station:SCCF:11:1,2011-08-02T02:00:00Z,26.4679,-82.0631,1.354,5.07,1111122 
SCCF RECON,ioos:station:SCCF:11:1,2011-08-02T03:00:00Z,26.4679,-82.0631,1.43,4.98,1111122 
SCCF RECON,ioos:station:SCCF:11:1,2011-08-02T04:00:00Z,26.4679,-82.0631,1.62,4.96,1111122 
SCCF RECON,ioos:station:SCCF:11:1,2011-08-02T05:00:00Z,26.4679,-82.0631,1.79,4.83,1111122 
SCCF RECON,ioos:station:SCCF:11:1,2011-08-02T06:00:00Z,26.4679,-82.0631,1.91,4.82,1111122 
SCCF RECON,ioos:station:SCCF:11:1,2011-08-02T07:00:00Z,26.4679,-82.0631,2.0,4.9,1111122 
SCCF RECON,ioos:station:SCCF:11:1,2011-08-02T08:00:00Z,26.4679,-82.0631,2.03,4.86,1111122 
SCCF RECON,ioos:station:SCCF:11:1,2011-08-02T09:00:00Z,26.4679,-82.0631,1.97,4.81,1111122 
SCCF RECON,ioos:station:SCCF:11:1,2011-08-02T10:00:00Z,26.4679,-82.0631,1.82,4.43,1111122 
SCCF RECON,ioos:station:SCCF:11:1,2011-08-02T11:00:00Z,26.4679,-82.0631,1.71,4.14,1111122 
SCCF RECON,ioos:station:SCCF:11:1,2011-08-02T12:00:00Z,26.4679,-82.0631,1.619,4.1,1111122 
SCCF RECON,ioos:station:SCCF:11:1,2011-08-02T13:00:00Z,26.4679,-82.0631,1.53,4.02,1111122 
SCCF RECON,ioos:station:SCCF:11:1,2011-08-02T14:00:00Z,26.4679,-82.0631,1.5,4.03,1111122 
SCCF RECON,ioos:station:SCCF:11:1,2011-08-02T15:00:00Z,26.4679,-82.0631,1.61,4.13,1111122 
SCCF RECON,ioos:station:SCCF:11:1,2011-08-02T16:00:00Z,26.4679,-82.0631,1.804,4.61,1111122 
SCCF RECON,ioos:station:SCCF:11:1,2011-08-02T17:00:00Z,26.4679,-82.0631,1.963,4.75,1111122 
SCCF RECON,ioos:station:SCCF:11:1,2011-08-02T18:00:00Z,26.4679,-82.0631,2.061,4.67,1111122 
SCCF RECON,ioos:station:SCCF:11:1,2011-08-02T19:00:00Z,26.4679,-82.0631,2.11,4.71,1111122 
SCCF RECON,ioos:station:SCCF:11:1,2011-08-02T20:00:00Z,26.4679,-82.0631,2.1,4.87,1111122 
SCCF RECON,ioos:station:SCCF:11:1,2011-08-02T21:00:00Z,26.4679,-82.0631,2.02,5.05,1111122 
SCCF RECON,ioos:station:SCCF:11:1,2011-08-02T22:00:00Z,26.4679,-82.0631,1.9,5.41,1111122 
SCCF RECON,ioos:station:SCCF:11:1,2011-08-02T23:00:00Z,26.4679,-82.0631,1.76,5.19,1111122 
SCCF RECON,ioos:station:SCCF:11:1,2011-08-03T00:00:00Z,26.4679,-82.0631,1.64,5.09,1111122 
SCCF RECON,ioos:station:SCCF:11:1,2011-08-03T01:00:00Z,26.4679,-82.0631,1.51,4.86,1111122 
SCCF RECON,ioos:station:SCCF:11:1,2011-08-03T02:00:00Z,26.4679,-82.0631,1.421,4.77,1111122 
SCCF RECON,ioos:station:SCCF:11:1,2011-08-03T03:00:00Z,26.4679,-82.0631,1.43,5.12,1111122 
SCCF RECON,ioos:station:SCCF:11:1,2011-08-03T04:00:00Z,26.4679,-82.0631,1.571,4.44,1111122 
SCCF RECON,ioos:station:SCCF:11:1,2011-08-03T05:00:00Z,26.4679,-82.0631,1.78,4.47,1111122 
SCCF RECON,ioos:station:SCCF:11:1,2011-08-03T06:00:00Z,26.4679,-82.0631,1.917,4.51,1111122 
SCCF RECON,ioos:station:SCCF:11:1,2011-08-03T07:00:00Z,26.4679,-82.0631,2.01,4.53,1111122 
SCCF RECON,ioos:station:SCCF:11:1,2011-08-03T08:00:00Z,26.4679,-82.0631,2.06,4.47,1111122 
SCCF RECON,ioos:station:SCCF:11:1,2011-08-03T09:00:00Z,26.4679,-82.0631,2.04,4.49,1111122 
SCCF RECON,ioos:station:SCCF:11:1,2011-08-03T10:00:00Z,26.4679,-82.0631,1.921,4.1,1111122 
SCCF RECON,ioos:station:SCCF:11:1,2011-08-03T11:00:00Z,26.4679,-82.0631,1.8,3.9,1111122 
SCCF RECON,ioos:station:SCCF:11:1,2011-08-03T12:00:00Z,26.4679,-82.0631,1.69,3.84,1111122 
SCCF RECON,ioos:station:SCCF:11:1,2011-08-03T13:00:00Z,26.4679,-82.0631,1.58,3.72,1111122 
SCCF RECON,ioos:station:SCCF:11:1,2011-08-03T14:00:00Z,26.4679,-82.0631,1.5,3.81,1111122 
SCCF RECON,ioos:station:SCCF:11:1,2011-08-03T15:00:00Z,26.4679,-82.0631,1.498,3.88,1111122 
SCCF RECON,ioos:station:SCCF:11:1,2011-08-03T16:00:00Z,26.4679,-82.0631,1.6,4.14,1111122 
SCCF RECON,ioos:station:SCCF:11:1,2011-08-03T17:00:00Z,26.4679,-82.0631,1.751,4.08,1111122 
SCCF RECON,ioos:station:SCCF:11:1,2011-08-03T18:00:00Z,26.4679,-82.0631,1.88,4.34,1111122 
SCCF RECON,ioos:station:SCCF:11:1,2011-08-03T19:00:00Z,26.4679,-82.0631,1.959,4.86,1111122 
SCCF RECON,ioos:station:SCCF:11:1,2011-08-03T20:00:00Z,26.4679,-82.0631,2.019,4.61,1111122 
SCCF RECON,ioos:station:SCCF:11:1,2011-08-03T21:00:00Z,26.4679,-82.0631,2.035,5.18,1111122 
SCCF RECON,ioos:station:SCCF:11:1,2011-08-03T22:00:00Z,26.4679,-82.0631,1.973,5.33,1111122 
SCCF RECON,ioos:station:SCCF:11:1,2011-08-03T23:00:00Z,26.4679,-82.0631,1.87,5.17,1111122 
SCCF RECON,ioos:station:SCCF:11:1,2011-08-04T00:00:00Z,26.4679,-82.0631,1.73,4.81,1111122 
SCCF RECON,ioos:station:SCCF:11:1,2011-08-04T01:00:00Z,26.4679,-82.0631,1.63,4.65,1111122 
SCCF RECON,ioos:station:SCCF:11:1,2011-08-04T02:00:00Z,26.4679,-82.0631,1.547,4.51,1111122 
SCCF RECON,ioos:station:SCCF:11:1,2011-08-04T03:00:00Z,26.4679,-82.0631,1.5,4.6,1111122 
SCCF RECON,ioos:station:SCCF:11:1,2011-08-04T04:00:00Z,26.4679,-82.0631,1.55,4.3,1111122 
SCCF RECON,ioos:station:SCCF:11:1,2011-08-04T05:00:00Z,26.4679,-82.0631,1.718,4.21,1111122 
SCCF RECON,ioos:station:SCCF:11:1,2011-08-04T06:00:00Z,26.4679,-82.0631,1.89,4.21,1111122 
SCCF RECON,ioos:station:SCCF:11:1,2011-08-04T07:00:00Z,26.4679,-82.0631,2.01,4.26,1111122 
SCCF RECON,ioos:station:SCCF:11:1,2011-08-04T08:00:00Z,26.4679,-82.0631,2.08,4.07,1111122 
SCCF RECON,ioos:station:SCCF:11:1,2011-08-04T09:00:00Z,26.4679,-82.0631,2.12,4.04,1111122 
SCCF RECON,ioos:station:SCCF:11:1,2011-08-04T10:00:00Z,26.4679,-82.0631,2.07,3.34,1111122 
SCCF RECON,ioos:station:SCCF:11:1,2011-08-04T11:00:00Z,26.4679,-82.0631,1.94,3.89,1111122 
SCCF RECON,ioos:station:SCCF:11:1,2011-08-04T12:00:00Z,26.4679,-82.0631,1.817,3.67,1111122 
SCCF RECON,ioos:station:SCCF:11:1,2011-08-04T13:00:00Z,26.4679,-82.0631,1.71,3.61,1111122 
SCCF RECON,ioos:station:SCCF:11:1,2011-08-04T14:00:00Z,26.4679,-82.0631,1.59,3.64,1111122 
SCCF RECON,ioos:station:SCCF:11:1,2011-08-04T15:00:00Z,26.4679,-82.0631,1.51,3.76,1111122 
SCCF RECON,ioos:station:SCCF:11:1,2011-08-04T16:00:00Z,26.4679,-82.0631,1.49,3.98,1111122 
SCCF RECON,ioos:station:SCCF:11:1,2011-08-04T17:00:00Z,26.4679,-82.0631,1.59,4.03,1111122 
SCCF RECON,ioos:station:SCCF:11:1,2011-08-04T18:00:00Z,26.4679,-82.0631,1.74,4.1,1111122 
SCCF RECON,ioos:station:SCCF:11:1,2011-08-04T19:00:00Z,26.4679,-82.0631,1.85,4.52,1111122 
SCCF RECON,ioos:station:SCCF:11:1,2011-08-04T20:00:00Z,26.4679,-82.0631,1.899,4.38,1111122 
SCCF RECON,ioos:station:SCCF:11:1,2011-08-04T21:00:00Z,26.4679,-82.0631,1.937,5.16,1111122 
SCCF RECON,ioos:station:SCCF:11:1,2011-08-04T22:00:00Z,26.4679,-82.0631,1.93,4.45,1111122 
SCCF RECON,ioos:station:SCCF:11:1,2011-08-04T23:00:00Z,26.4679,-82.0631,1.9,5.08,1111122 
SCCF RECON,ioos:station:SCCF:11:1,2011-08-05T00:00:00Z,26.4679,-82.0631,1.813,5.7,1111122 
SCCF RECON,ioos:station:SCCF:11:1,2011-08-05T01:00:00Z,26.4679,-82.0631,1.742,5.31,1111122 
SCCF RECON,ioos:station:SCCF:11:1,2011-08-05T02:00:00Z,26.4679,-82.0631,1.664,5.15,1111122 
SCCF RECON,ioos:station:SCCF:11:1,2011-08-05T03:00:00Z,26.4679,-82.0631,1.598,4.94,1111122 
SCCF RECON,ioos:station:SCCF:11:1,2011-08-05T04:00:00Z,26.4679,-82.0631,1.596,4.63,1111122 
SCCF RECON,ioos:station:SCCF:11:1,2011-08-05T05:00:00Z,26.4679,-82.0631,1.65,4.43,1111122 
SCCF RECON,ioos:station:SCCF:11:1,2011-08-05T06:00:00Z,26.4679,-82.0631,1.81,4.42,1111122 
SCCF RECON,ioos:station:SCCF:11:1,2011-08-05T07:00:00Z,26.4679,-82.0631,1.96,4.91,1111122 
SCCF RECON,ioos:station:SCCF:11:1,2011-08-05T08:00:00Z,26.4679,-82.0631,2.06,4.67,1111122 
SCCF RECON,ioos:station:SCCF:11:1,2011-08-05T09:00:00Z,26.4679,-82.0631,2.08,4.43,1111122 
SCCF RECON,ioos:station:SCCF:11:1,2011-08-05T10:00:00Z,26.4679,-82.0631,2.08,4.33,1111122 
SCCF RECON,ioos:station:SCCF:11:1,2011-08-05T11:00:00Z,26.4679,-82.0631,2.01,4.15,1111122 
SCCF RECON,ioos:station:SCCF:11:1,2011-08-05T12:00:00Z,26.4679,-82.0631,1.923,4.38,1111122 
SCCF RECON,ioos:station:SCCF:11:1,2011-08-05T13:00:00Z,26.4679,-82.0631,1.79,3.85,1111122 
SCCF RECON,ioos:station:SCCF:11:1,2011-08-05T14:00:00Z,26.4679,-82.0631,1.653,3.94,1111122 
SCCF RECON,ioos:station:SCCF:11:1,2011-08-05T15:00:00Z,26.4679,-82.0631,1.56,4.27,1111122 
SCCF RECON,ioos:station:SCCF:11:1,2011-08-05T16:00:00Z,26.4679,-82.0631,1.48,4.45,1111122 
SCCF RECON,ioos:station:SCCF:11:1,2011-08-05T17:00:00Z,26.4679,-82.0631,1.43,5.27,1111122 
SCCF RECON,ioos:station:SCCF:11:1,2011-08-05T18:00:00Z,26.4679,-82.0631,1.477,5.02,1111122 
SCCF RECON,ioos:station:SCCF:11:1,2011-08-05T19:00:00Z,26.4679,-82.0631,1.598,5.27,1111122 
SCCF RECON,ioos:station:SCCF:11:1,2011-08-05T20:00:00Z,26.4679,-82.0631,1.73,5.13,1111122 
SCCF RECON,ioos:station:SCCF:11:1,2011-08-05T21:00:00Z,26.4679,-82.0631,1.815,5.69,1111122 
SCCF RECON,ioos:station:SCCF:11:1,2011-08-05T22:00:00Z,26.4679,-82.0631,1.84,5.65,1111122 
SCCF RECON,ioos:station:SCCF:11:1,2011-08-05T23:00:00Z,26.4679,-82.0631,1.869,5.97,1111122 
SCCF RECON,ioos:station:SCCF:11:1,2011-08-06T00:00:00Z,26.4679,-82.0631,1.863,6.26,1111122 
SCCF RECON,ioos:station:SCCF:11:1,2011-08-06T01:00:00Z,26.4679,-82.0631,1.84,5.74,1111122 
SCCF RECON,ioos:station:SCCF:11:1,2011-08-06T02:00:00Z,26.4679,-82.0631,1.79,5.79,1111122 
SCCF RECON,ioos:station:SCCF:11:1,2011-08-06T03:00:00Z,26.4679,-82.0631,1.722,5.7,1111122 
SCCF RECON,ioos:station:SCCF:11:1,2011-08-06T04:00:00Z,26.4679,-82.0631,1.71,5.32,1111122 
SCCF RECON,ioos:station:SCCF:11:1,2011-08-06T05:00:00Z,26.4679,-82.0631,1.69,5.44,1111122 
SCCF RECON,ioos:station:SCCF:11:1,2011-08-06T06:00:00Z,26.4679,-82.0631,1.75,5.07,1111122 
SCCF RECON,ioos:station:SCCF:11:1,2011-08-06T07:00:00Z,26.4679,-82.0631,1.859,4.5,1111122 
SCCF RECON,ioos:station:SCCF:11:1,2011-08-06T08:00:00Z,26.4679,-82.0631,1.96,4.72,1111122 
SCCF RECON,ioos:station:SCCF:11:1,2011-08-06T09:00:00Z,26.4679,-82.0631,2.032,4.62,1111122 
SCCF RECON,ioos:station:SCCF:11:1,2011-08-06T10:00:00Z,26.4679,-82.0631,2.08,4.65,1111122 
SCCF RECON,ioos:station:SCCF:11:1,2011-08-06T11:00:00Z,26.4679,-82.0631,2.12,4.07,1111122 
SCCF RECON,ioos:station:SCCF:11:1,2011-08-06T12:00:00Z,26.4679,-82.0631,2.059,4.42,1111122 
SCCF RECON,ioos:station:SCCF:11:1,2011-08-06T13:00:00Z,26.4679,-82.0631,1.921,4.32,1111122 
SCCF RECON,ioos:station:SCCF:11:1,2011-08-06T14:00:00Z,26.4679,-82.0631,1.8,4.18,1111122 
SCCF RECON,ioos:station:SCCF:11:1,2011-08-06T15:00:00Z,26.4679,-82.0631,1.681,4.31,1111122 
SCCF RECON,ioos:station:SCCF:11:1,2011-08-06T16:00:00Z,26.4679,-82.0631,1.57,4.58,1111122 
SCCF RECON,ioos:station:SCCF:11:1,2011-08-06T17:00:00Z,26.4679,-82.0631,1.47,4.77,1111122 
SCCF RECON,ioos:station:SCCF:11:1,2011-08-06T18:00:00Z,26.4679,-82.0631,1.41,5.6,1111122 
SCCF RECON,ioos:station:SCCF:11:1,2011-08-06T19:00:00Z,26.4679,-82.0631,1.422,5.59,1111122 
SCCF RECON,ioos:station:SCCF:11:1,2011-08-06T20:00:00Z,26.4679,-82.0631,1.5,5.6,1111122 
SCCF RECON,ioos:station:SCCF:11:1,2011-08-06T21:00:00Z,26.4679,-82.0631,1.61,5.32,1111122 
SCCF RECON,ioos:station:SCCF:11:1,2011-08-06T22:00:00Z,26.4679,-82.0631,1.702,5.78,1111122 
SCCF RECON,ioos:station:SCCF:11:1,2011-08-06T23:00:00Z,26.4679,-82.0631,1.77,5.21,1111122 
SCCF RECON,ioos:station:SCCF:11:1,2011-08-07T00:00:00Z,26.4679,-82.0631,1.828,5.2,1111122 
SCCF RECON,ioos:station:SCCF:11:1,2011-08-07T01:00:00Z,26.4679,-82.0631,1.85,5.06,1111122 
SCCF RECON,ioos:station:SCCF:11:1,2011-08-07T02:00:00Z,26.4679,-82.0631,1.82,4.38,1111122 
SCCF RECON,ioos:station:SCCF:11:1,2011-08-07T03:00:00Z,26.4679,-82.0631,1.78,5.33,1111122 
SCCF RECON,ioos:station:SCCF:11:1,2011-08-07T04:00:00Z,26.4679,-82.0631,1.75,5.07,1111122 
SCCF RECON,ioos:station:SCCF:11:1,2011-08-07T05:00:00Z,26.4679,-82.0631,1.75,5.17,1111122 
SCCF RECON,ioos:station:SCCF:11:1,2011-08-07T06:00:00Z,26.4679,-82.0631,1.743,4.98,1111122 
SCCF RECON,ioos:station:SCCF:11:1,2011-08-07T07:00:00Z,26.4679,-82.0631,1.795,4.79,1111122 
SCCF RECON,ioos:station:SCCF:11:1,2011-08-07T08:00:00Z,26.4679,-82.0631,1.86,4.26,1111122 
SCCF RECON,ioos:station:SCCF:11:1,2011-08-07T09:00:00Z,26.4679,-82.0631,1.94,4.5,1111122 
SCCF RECON,ioos:station:SCCF:11:1,2011-08-07T10:00:00Z,26.4679,-82.0631,2.04,4.52,1111122 
SCCF RECON,ioos:station:SCCF:11:1,2011-08-07T11:00:00Z,26.4679,-82.0631,2.08,4.28,1111122 
SCCF RECON,ioos:station:SCCF:11:1,2011-08-07T12:00:00Z,26.4679,-82.0631,2.086,4.4,1111122 
SCCF RECON,ioos:station:SCCF:11:1,2011-08-07T13:00:00Z,26.4679,-82.0631,2.04,4.27,1111122 
SCCF RECON,ioos:station:SCCF:11:1,2011-08-07T14:00:00Z,26.4679,-82.0631,1.909,4.11,1111122 
SCCF RECON,ioos:station:SCCF:11:1,2011-08-07T15:00:00Z,26.4679,-82.0631,1.797,4.09,1111122 
SCCF RECON,ioos:station:SCCF:11:1,2011-08-07T16:00:00Z,26.4679,-82.0631,1.66,4.28,1111122 
SCCF RECON,ioos:station:SCCF:11:1,2011-08-07T17:00:00Z,26.4679,-82.0631,1.54,4.48,1111122 
SCCF RECON,ioos:station:SCCF:11:1,2011-08-07T18:00:00Z,26.4679,-82.0631,1.44,4.91,1111122 
SCCF RECON,ioos:station:SCCF:11:1,2011-08-07T19:00:00Z,26.4679,-82.0631,1.366,5.13,1111122 
SCCF RECON,ioos:station:SCCF:11:1,2011-08-07T20:00:00Z,26.4679,-82.0631,1.348,5.5,1111122 
SCCF RECON,ioos:station:SCCF:11:1,2011-08-07T21:00:00Z,26.4679,-82.0631,1.42,5.03,1111122 
SCCF RECON,ioos:station:SCCF:11:1,2011-08-07T22:00:00Z,26.4679,-82.0631,1.54,5.2,1111122 
SCCF RECON,ioos:station:SCCF:11:1,2011-08-07T23:00:00Z,26.4679,-82.0631,1.64,5.24,1111122 
SCCF RECON,ioos:station:SCCF:11:1,2011-08-08T00:00:00Z,26.4679,-82.0631,1.717,5.16,1111122 
SCCF RECON,ioos:station:SCCF:11:1,2011-08-08T01:00:00Z,26.4679,-82.0631,1.807,5.0,1111122 
SCCF RECON,ioos:station:SCCF:11:1,2011-08-08T02:00:00Z,26.4679,-82.0631,1.83,5.0,1111122 
SCCF RECON,ioos:station:SCCF:11:1,2011-08-08T03:00:00Z,26.4679,-82.0631,1.85,4.9,1111122 
SCCF RECON,ioos:station:SCCF:11:1,2011-08-08T04:00:00Z,26.4679,-82.0631,1.78,4.73,1111122 
SCCF RECON,ioos:station:SCCF:11:1,2011-08-08T05:00:00Z,26.4679,-82.0631,1.77,4.41,1111122 
SCCF RECON,ioos:station:SCCF:11:1,2011-08-08T06:00:00Z,26.4679,-82.0631,1.78,4.17,1111122 
SCCF RECON,ioos:station:SCCF:11:1,2011-08-08T07:00:00Z,26.4679,-82.0631,1.82,4.03,1111122 
SCCF RECON,ioos:station:SCCF:11:1,2011-08-08T08:00:00Z,26.4679,-82.0631,1.86,3.89,1111122 
SCCF RECON,ioos:station:SCCF:11:1,2011-08-08T09:00:00Z,26.4679,-82.0631,1.95,4.38,1111122 
SCCF RECON,ioos:station:SCCF:11:1,2011-08-08T10:00:00Z,26.4679,-82.0631,2.094,4.22,1111122 
SCCF RECON,ioos:station:SCCF:11:1,2011-08-08T11:00:00Z,26.4679,-82.0631,2.11,4.57,1111122 
SCCF RECON,ioos:station:SCCF:11:1,2011-08-08T12:00:00Z,26.4679,-82.0631,2.11,4.3,1111122 
SCCF RECON,ioos:station:SCCF:11:1,2011-08-08T13:00:00Z,26.4679,-82.0631,2.12,4.38,1111122 
SCCF RECON,ioos:station:SCCF:11:1,2011-08-08T14:00:00Z,26.4679,-82.0631,2.098,3.75,1111122 
SCCF RECON,ioos:station:SCCF:11:1,2011-08-08T15:00:00Z,26.4679,-82.0631,2.008,4.27,1111122 
SCCF RECON,ioos:station:SCCF:11:1,2011-08-08T16:00:00Z,26.4679,-82.0631,1.854,4.27,1111122 
SCCF RECON,ioos:station:SCCF:11:1,2011-08-08T17:00:00Z,26.4679,-82.0631,1.719,4.39,1111122 
SCCF RECON,ioos:station:SCCF:11:1,2011-08-08T18:00:00Z,26.4679,-82.0631,1.58,4.63,1111122 
SCCF RECON,ioos:station:SCCF:11:1,2011-08-08T19:00:00Z,26.4679,-82.0631,1.464,4.64,1111122 
SCCF RECON,ioos:station:SCCF:11:1,2011-08-08T20:00:00Z,26.4679,-82.0631,1.38,4.95,1111122 
SCCF RECON,ioos:station:SCCF:11:1,2011-08-08T21:00:00Z,26.4679,-82.0631,1.403,4.88,1111122 
SCCF RECON,ioos:station:SCCF:11:1,2011-08-08T22:00:00Z,26.4679,-82.0631,1.399,4.35,1111122 
SCCF RECON,ioos:station:SCCF:11:1,2011-08-08T23:00:00Z,26.4679,-82.0631,1.49,4.15,1111122 
SCCF RECON,ioos:station:SCCF:11:1,2011-08-09T00:00:00Z,26.4679,-82.0631,1.626,4.55,1111122 
SCCF RECON,ioos:station:SCCF:11:1,2011-08-09T01:00:00Z,26.4679,-82.0631,1.728,4.51,1111122 
SCCF RECON,ioos:station:SCCF:11:1,2011-08-09T02:00:00Z,26.4679,-82.0631,1.76,4.34,1111122 
SCCF RECON,ioos:station:SCCF:11:1,2011-08-09T03:00:00Z,26.4679,-82.0631,1.83,4.13,1111122 
SCCF RECON,ioos:station:SCCF:11:1,2011-08-09T04:00:00Z,26.4679,-82.0631,1.862,4.43,1111122 
SCCF RECON,ioos:station:SCCF:11:1,2011-08-09T05:00:00Z,26.4679,-82.0631,1.86,4.33,1111122 
SCCF RECON,ioos:station:SCCF:11:1,2011-08-09T06:00:00Z,26.4679,-82.0631,1.86,4.17,1111122 
SCCF RECON,ioos:station:SCCF:11:1,2011-08-09T07:00:00Z,26.4679,-82.0631,1.81,3.97,1111122 
SCCF RECON,ioos:station:SCCF:11:1,2011-08-09T08:00:00Z,26.4679,-82.0631,1.8,3.98,1111122 
SCCF RECON,ioos:station:SCCF:11:1,2011-08-09T09:00:00Z,26.4679,-82.0631,1.842,2.8,1111122 
SCCF RECON,ioos:station:SCCF:11:1,2011-08-09T10:00:00Z,26.4679,-82.0631,1.92,3.62,1111122 
SCCF RECON,ioos:station:SCCF:11:1,2011-08-09T11:00:00Z,26.4679,-82.0631,1.98,3.99,1111122 
SCCF RECON,ioos:station:SCCF:11:1,2011-08-09T12:00:00Z,26.4679,-82.0631,2.06,3.52,1111122 
SCCF RECON,ioos:station:SCCF:11:1,2011-08-09T13:00:00Z,26.4679,-82.0631,2.13,3.92,1111122 
SCCF RECON,ioos:station:SCCF:11:1,2011-08-09T14:00:00Z,26.4679,-82.0631,2.18,4.05,1111122 
SCCF RECON,ioos:station:SCCF:11:1,2011-08-09T15:00:00Z,26.4679,-82.0631,2.167,3.88,1111122 
SCCF RECON,ioos:station:SCCF:11:1,2011-08-09T16:00:00Z,26.4679,-82.0631,2.053,4.08,1111122 
SCCF RECON,ioos:station:SCCF:11:1,2011-08-09T17:00:00Z,26.4679,-82.0631,1.92,4.15,1111122 
SCCF RECON,ioos:station:SCCF:11:1,2011-08-09T18:00:00Z,26.4679,-82.0631,1.78,4.36,1111122 
SCCF RECON,ioos:station:SCCF:11:1,2011-08-09T19:00:00Z,26.4679,-82.0631,1.64,4.44,1111122 
SCCF RECON,ioos:station:SCCF:11:1,2011-08-09T20:00:00Z,26.4679,-82.0631,1.513,4.61,1111122 
SCCF RECON,ioos:station:SCCF:11:1,2011-08-09T21:00:00Z,26.4679,-82.0631,1.44,4.76,1111122 
SCCF RECON,ioos:station:SCCF:11:1,2011-08-09T22:00:00Z,26.4679,-82.0631,1.407,5.25,1111122 
SCCF RECON,ioos:station:SCCF:11:1,2011-08-09T23:00:00Z,26.4679,-82.0631,1.42,4.89,1111122 
SCCF RECON,ioos:station:SCCF:11:1,2011-08-10T00:00:00Z,26.4679,-82.0631,1.484,4.78,1111122 
SCCF RECON,ioos:station:SCCF:11:1,2011-08-10T01:00:00Z,26.4679,-82.0631,1.58,4.46,1111122 
SCCF RECON,ioos:station:SCCF:11:1,2011-08-10T02:00:00Z,26.4679,-82.0631,1.65,4.54,1111122 
SCCF RECON,ioos:station:SCCF:11:1,2011-08-10T03:00:00Z,26.4679,-82.0631,1.78,4.34,1111122 
SCCF RECON,ioos:station:SCCF:11:1,2011-08-10T04:00:00Z,26.4679,-82.0631,1.9,4.34,1111122 
SCCF RECON,ioos:station:SCCF:11:1,2011-08-10T05:00:00Z,26.4679,-82.0631,1.95,4.34,1111122 
SCCF RECON,ioos:station:SCCF:11:1,2011-08-10T06:00:00Z,26.4679,-82.0631,1.9,4.27,1111122 
SCCF RECON,ioos:station:SCCF:11:1,2011-08-10T07:00:00Z,26.4679,-82.0631,1.79,4.14,1111122 
SCCF RECON,ioos:station:SCCF:11:1,2011-08-10T08:00:00Z,26.4679,-82.0631,1.706,3.94,1111122 
SCCF RECON,ioos:station:SCCF:11:1,2011-08-10T09:00:00Z,26.4679,-82.0631,1.705,3.57,1111122 
SCCF RECON,ioos:station:SCCF:11:1,2011-08-10T10:00:00Z,26.4679,-82.0631,1.79,3.59,1111122 
SCCF RECON,ioos:station:SCCF:11:1,2011-08-10T11:00:00Z,26.4679,-82.0631,1.921,3.68,1111122 
SCCF RECON,ioos:station:SCCF:11:1,2011-08-10T12:00:00Z,26.4679,-82.0631,2.02,3.63,1111122 
SCCF RECON,ioos:station:SCCF:11:1,2011-08-10T13:00:00Z,26.4679,-82.0631,2.119,3.74,1111122 
SCCF RECON,ioos:station:SCCF:11:1,2011-08-10T14:00:00Z,26.4679,-82.0631,2.165,3.76,1111122 
SCCF RECON,ioos:station:SCCF:11:1,2011-08-10T15:00:00Z,26.4679,-82.0631,2.24,4.13,1111122 
SCCF RECON,ioos:station:SCCF:11:1,2011-08-10T16:00:00Z,26.4679,-82.0631,2.111,4.17,1111122 
SCCF RECON,ioos:station:SCCF:11:1,2011-08-10T17:00:00Z,26.4679,-82.0631,2.02,4.18,1111122 
SCCF RECON,ioos:station:SCCF:11:1,2011-08-10T18:00:00Z,26.4679,-82.0631,1.86,4.25,1111122 
SCCF RECON,ioos:station:SCCF:11:1,2011-08-10T19:00:00Z,26.4679,-82.0631,1.712,4.19,1111122 
SCCF RECON,ioos:station:SCCF:11:1,2011-08-10T20:00:00Z,26.4679,-82.0631,1.579,4.27,1111122 
SCCF RECON,ioos:station:SCCF:11:1,2011-08-10T21:00:00Z,26.4679,-82.0631,1.468,4.44,1111122 
SCCF RECON,ioos:station:SCCF:11:1,2011-08-10T22:00:00Z,26.4679,-82.0631,1.38,4.38,1111122 
SCCF RECON,ioos:station:SCCF:11:1,2011-08-10T23:00:00Z,26.4679,-82.0631,1.34,4.43,1111122 
SCCF RECON,ioos:station:SCCF:11:1,2011-08-11T00:00:00Z,26.4679,-82.0631,1.324,3.77,1111122 
SCCF RECON,ioos:station:SCCF:11:1,2011-08-11T01:00:00Z,26.4679,-82.0631,1.37,4.42,1111122 
SCCF RECON,ioos:station:SCCF:11:1,2011-08-11T02:00:00Z,26.4679,-82.0631,1.534,3.89,1111122 
SCCF RECON,ioos:station:SCCF:11:1,2011-08-11T03:00:00Z,26.4679,-82.0631,1.707,3.84,1111122 
SCCF RECON,ioos:station:SCCF:11:1,2011-08-11T04:00:00Z,26.4679,-82.0631,1.84,3.76,1111122 
SCCF RECON,ioos:station:SCCF:11:1,2011-08-11T05:00:00Z,26.4679,-82.0631,1.89,4.01,1111122 
SCCF RECON,ioos:station:SCCF:11:1,2011-08-11T06:00:00Z,26.4679,-82.0631,1.86,3.9,1111122 
SCCF RECON,ioos:station:SCCF:11:1,2011-08-11T07:00:00Z,26.4679,-82.0631,1.75,3.76,1111122 
SCCF RECON,ioos:station:SCCF:11:1,2011-08-11T08:00:00Z,26.4679,-82.0631,1.699,3.51,1111122 
SCCF RECON,ioos:station:SCCF:11:1,2011-08-11T09:00:00Z,26.4679,-82.0631,1.672,2.8,1111122 
SCCF RECON,ioos:station:SCCF:11:1,2011-08-11T10:00:00Z,26.4679,-82.0631,1.71,2.94,1111122 
SCCF RECON,ioos:station:SCCF:11:1,2011-08-11T11:00:00Z,26.4679,-82.0631,1.8,3.1,1111122 
SCCF RECON,ioos:station:SCCF:11:1,2011-08-11T12:00:00Z,26.4679,-82.0631,1.932,3.29,1111122 
SCCF RECON,ioos:station:SCCF:11:1,2011-08-11T13:00:00Z,26.4679,-82.0631,2.04,3.18,1111122 
SCCF RECON,ioos:station:SCCF:11:1,2011-08-11T14:00:00Z,26.4679,-82.0631,2.108,3.56,1111122 
SCCF RECON,ioos:station:SCCF:11:1,2011-08-11T15:00:00Z,26.4679,-82.0631,2.17,3.92,1111122 
SCCF RECON,ioos:station:SCCF:11:1,2011-08-11T16:00:00Z,26.4679,-82.0631,2.175,4.17,1111122 
SCCF RECON,ioos:station:SCCF:11:1,2011-08-11T17:00:00Z,26.4679,-82.0631,2.092,4.08,1111122 
SCCF RECON,ioos:station:SCCF:11:1,2011-08-11T18:00:00Z,26.4679,-82.0631,1.95,4.67,1111122 
SCCF RECON,ioos:station:SCCF:11:1,2011-08-11T19:00:00Z,26.4679,-82.0631,1.801,4.76,1111122 
SCCF RECON,ioos:station:SCCF:11:1,2011-08-11T20:00:00Z,26.4679,-82.0631,1.65,5.09,1111122 
SCCF RECON,ioos:station:SCCF:11:1,2011-08-11T21:00:00Z,26.4679,-82.0631,1.51,5.29,1111122 